Flag for Germany Weather for the Past 2 Weeks in Frankfurt an der Oder, Brandenburg, Germany

Now
62 °F

Clear.


Feels Like: 62 °F
Forecast: 47 / 70 °F
Wind: 3 mph from North

Location: Gorzow Wlkp

Current Time: May 5, 2016 at 10:14:21 PM

Latest Report: May 5, 2016 at 9:00 PM


Visibility: 25 mi

Pressure: 30.25 "Hg

Humidity: 45%

Dew Point: 40 °F

Location of Frankfurt an der OderLocation

Historic Weather in Frankfurt an der Oder — Graph

°F

Frankfurt an der Oder Temperature Yesterday

Maximum temperature yesterday: 57 °F (at 4:00 PM)
Minimum temperature yesterday: 48 °F (at 6:00 AM)
Average temperature yesterday: 53 °F

High & Low Weather Summary for the Past Weeks

 TemperatureHumidityPressure
High68 °F (May 3, 5:00 PM)98% (Apr 29, 5:00 AM)30.37 "Hg (Apr 29, 5:00 AM)
Low32 °F (Apr 26, 5:00 AM)29% (May 1, 5:00 PM)29.50 "Hg (Apr 26, 12:00 PM)
Average48 °F61%29.99 "Hg
* Reported Apr 20 8:00 PM — May 5 8:00 PM, Frankfurt an der Oder, Weather by CustomWeather, © 2016

Note: Actual official high and low records may vary slightly from our data, if they occured in-between our weather recording intervals... More about our weather records

Advertising

Frankfurt an der Oder Weather History for the Previous 24 Hours

Scroll right to see more
 ConditionsComfort  
Time TempWeatherWind HumidityBarometerVisibility
8:00 PM
Thu, May 5
65 °FSunny.3 mph40%30.25 "Hg19 mi
7:00 PM67 °FPassing clouds.2 mph39%30.25 "Hg19 mi
6:00 PM67 °FPassing clouds.2 mph34%30.26 "Hg22 mi
5:00 PM67 °FPassing clouds.2 mph35%30.28 "Hg22 mi
4:00 PM67 °FPassing clouds.2 mph33%30.29 "Hg19 mi
3:00 PM67 °FScattered clouds.1 mph34%30.30 "Hg22 mi
2:00 PM66 °FPassing clouds.2 mph38%30.32 "Hg19 mi
1:00 PM64 °FPassing clouds.2 mph41%30.34 "Hg19 mi
12:00 PM62 °FPassing clouds.1 mph42%30.36 "Hg19 mi
11:00 AM59 °FScattered clouds.1 mph53%30.37 "Hg16 mi
10:00 AM56 °FPartly sunny.2 mph55%30.37 "Hg19 mi
9:00 AM54 °FPartly sunny.2 mph66%30.37 "Hg16 mi
8:00 AM50 °FScattered clouds.2 mph74%30.37 "Hg16 mi
7:00 AM47 °FPassing clouds.2 mph78%30.37 "Hg16 mi
6:00 AM46 °FScattered clouds.2 mph78%30.37 "Hg19 mi
5:00 AM47 °FPassing clouds.3 mph75%30.36 "Hg25 mi
4:00 AM48 °FPassing clouds.3 mph71%30.35 "Hg25 mi
3:00 AM49 °FOvercast.3 mph66%30.36 "Hg25 mi
2:00 AM50 °FOvercast.5 mph69%30.36 "Hg25 mi
1:00 AM50 °FOvercast.3 mph68%30.36 "Hg31 mi
12:00 AM51 °FOvercast.2 mph64%30.36 "Hg31 mi
11:00 PM
Wed, May 4
51 °FOvercast.3 mph60%30.35 "Hg31 mi
10:00 PM52 °FOvercast.3 mph57%30.34 "Hg31 mi
Weather by CustomWeather, © 2016

See weather overviewHow to use our weather pages